QPF
0.00 0.00 0.00 0.00 0.00 0.00 0.00 0.00 0.00 0.00 0.00 0.00 0.00 0.00 0.00 0.00 0.00 0.00 0.00 0.00 0.00 0.00 0.00 0.01 0.00 0.00 0.01 0.01 0.01 0.02 0.02 0.03 0.02 0.02 0.01 0.01 0.01 0.01 0.01 0.01 0.01 0.01 0.01 0.01 0.01 0.01 0.01 0.00 0.00
0.00 0.00 0.00 0.00 0.00 0.00 0.00 0.00 0.00 0.00 0.00 0.00 0.00 0.00 0.00 0.00 0.00 0.00 0.00 0.00 0.00 0.00 0.00 0.00 0.00 0.00 0.00 0.00 0.01 0.01 0.01 0.01 0.01 0.01 0.01 0.01 0.01 0.01 0.01 0.01 0.01 0.01 0.01 0.01 0.01 0.01 0.01 0.00 0.00
0.00 0.00 0.00 0.00 0.00 0.00 0.00 0.00 0.00 0.00 0.00 0.00 0.00 0.00 0.00 0.00 0.00 0.00 0.00 0.00 0.00 0.00 0.00 0.00 0.00 0.00 0.00 0.01 0.01 0.01 0.01 0.01 0.01 0.01 0.01 0.01 0.01 0.00 0.00 0.00 0.00 0.01 0.01 0.01 0.01 0.01 0.01 0.00 0.00
0.00 0.00 0.00 0.00 0.00 0.00 0.00 0.00 0.00 0.00 0.00 0.00 0.00 0.00 0.00 0.00 0.00 0.00 0.00 0.00 0.00 0.00 0.00 0.00 0.00 0.00 0.00 0.01 0.01 0.02 0.01 0.01 0.01 0.01 0.00 0.00 0.00 0.00 0.00 0.00 0.00 0.01 0.01 0.01 0.01 0.00 0.00 0.00 0.00
0.00 0.00 0.00 0.00 0.00 0.00 0.00 0.00 0.00 0.00 0.00 0.00 0.00 0.00 0.00 0.00 0.00 0.00 0.00 0.00 0.00 0.00 0.00 0.00 0.00 0.00 0.00 0.00 0.01 0.01 0.01 0.01 0.01 0.00 0.00 0.00 0.00 0.00 0.00 0.00 0.00 0.00 0.01 0.01 0.00 0.00 0.00 0.00 0.00
0.00 0.00 0.00 0.00 0.00 0.00 0.00 0.00 0.00 0.00 0.00 0.00 0.00 0.00 0.00 0.00 0.00 0.00 0.00 0.00 0.00 0.00 0.00 0.00 0.00 0.00 0.00 0.00 0.00 0.00 0.00 0.00 0.00 0.00 0.00 0.00 0.00 0.00 0.00 0.00 0.00 0.00 0.00 0.00 0.00 0.00 0.00 0.00 0.00
0.00 0.00 0.00 0.00 0.00 0.00 0.00 0.00 0.00 0.00 0.00 0.00 0.00 0.00 0.00 0.00 0.00 0.00 0.00 0.00 0.00 0.00 0.00 0.00 0.00 0.00 0.00 0.00 0.00 0.00 0.00 0.00 0.00 0.00 0.00 0.00 0.00 0.00 0.00 0.00 0.00 0.00 0.00 0.00 0.00 0.00 0.00 0.00 0.00
0.00 0.00 0.00 0.00 0.00 0.00 0.00 0.00 0.00 0.00 0.00 0.00 0.00 0.00 0.00 0.00 0.00 0.00 0.01 0.01 0.01 0.01 0.00 0.00 0.00 0.00 0.00 0.00 0.00 0.00 0.00 0.00 0.00 0.00 0.00 0.00 0.00 0.00 0.00 0.00 0.00 0.00 0.00 0.00 0.00 0.00 0.00 0.00 0.00
0.00 0.00 0.00 0.00 0.00 0.00 0.00 0.00 0.00 0.00 0.00 0.00 0.00 0.00 0.00 0.00 0.00 0.01 0.01 0.01 0.01 0.01 0.01 0.00 0.00 0.00 0.00 0.00 0.00 0.00 0.00 0.00 0.00 0.00 0.00 0.00 0.00 0.00 0.00 0.00 0.00 0.00 0.00 0.00 0.00 0.00 0.00 0.00 0.00
0.00 0.00 0.00 0.00 0.00 0.00 0.00 0.00 0.00 0.00 0.00 0.00 0.00 0.00 0.00 0.00 0.00 0.00 0.00 0.01 0.01 0.01 0.01 0.00 0.00 0.00 0.00 0.00 0.00 0.00 0.00 0.00 0.00 0.00 0.00 0.00 0.00 0.00 0.00 0.00 0.00 0.00 0.00 0.00 0.00 0.00 0.00 0.00 0.00
0.00 0.00 0.00 0.00 0.00 0.00 0.00 0.00 0.00 0.00 0.00 0.00 0.00 0.00 0.00 0.00 0.00 0.00 0.00 0.00 0.00 0.00 0.01 0.00 0.00 0.00 0.00 0.00 0.00 0.00 0.00 0.00 0.00 0.00 0.00 0.00 0.00 0.00 0.00 0.00 0.00 0.00 0.00 0.00 0.00 0.00 0.00 0.00 0.00
0.00 0.00 0.00 0.00 0.00 0.00 0.00 0.00 0.00 0.00 0.00 0.00 0.00 0.00 0.00 0.00 0.00 0.00 0.00 0.00 0.00 0.00 0.00 0.00 0.00 0.00 0.00 0.00 0.00 0.00 0.00 0.00 0.00 0.00 0.00 0.00 0.00 0.00 0.00 0.00 0.00 0.00 0.00 0.00 0.00 0.00 0.00 0.00 0.00
0.00 0.00 0.00 0.00 0.00 0.00 0.00 0.00 0.00 0.00 0.00 0.00 0.00 0.00 0.00 0.00 0.00 0.00 0.00 0.00 0.00 0.00 0.00 0.00 0.00 0.00 0.00 0.00 0.00 0.00 0.00 0.00 0.00 0.00 0.00 0.00 0.00 0.00 0.00 0.00 0.00 0.00 0.00 0.00 0.00 0.00 0.00 0.00 0.00
0.00 0.00 0.00 0.00 0.00 0.00 0.00 0.00 0.00 0.00 0.00 0.00 0.00 0.00 0.00 0.00 0.00 0.00 0.00 0.00 0.00 0.00 0.00 0.00 0.00 0.00 0.00 0.00 0.00 0.00 0.00 0.00 0.00 0.00 0.00 0.00 0.00 0.00 0.00 0.00 0.00 0.00 0.00 0.00 0.00 0.00 0.00 0.00 0.00
0.00 0.00 0.00 0.00 0.00 0.00 0.00 0.00 0.00 0.00 0.00 0.00 0.00 0.00 0.00 0.00 0.00 0.00 0.00 0.00 0.00 0.00 0.00 0.00 0.00 0.00 0.00 0.00 0.00 0.00 0.00 0.00 0.00 0.00 0.00 0.00 0.00 0.00 0.00 0.00 0.00 0.00 0.00 0.00 0.00 0.00 0.00 0.00 0.00
0.01 0.01 0.01 0.01 0.00 0.00 0.00 0.00 0.00 0.00 0.00 0.00 0.00 0.00 0.00 0.00 0.00 0.00 0.00 0.00 0.00 0.00 0.00 0.00 0.00 0.00 0.00 0.00 0.00 0.00 0.00 0.00 0.00 0.00 0.00 0.00 0.00 0.00 0.00 0.00 0.00 0.00 0.00 0.00 0.00 0.00 0.00 0.00 0.00
0.02 0.02 0.01 0.01 0.00 0.00 0.00 0.00 0.00 0.00 0.00 0.00 0.00 0.00 0.00 0.00 0.00 0.00 0.00 0.00 0.00 0.00 0.00 0.00 0.00 0.00 0.00 0.00 0.00 0.00 0.00 0.00 0.00 0.00 0.00 0.00 0.00 0.00 0.00 0.00 0.00 0.00 0.00 0.00 0.00 0.00 0.00 0.00 0.00
0.01 0.01 0.01 0.00 0.00 0.00 0.00 0.00 0.00 0.00 0.00 0.00 0.00 0.00 0.00 0.00 0.00 0.00 0.00 0.00 0.00 0.00 0.00 0.00 0.00 0.00 0.00 0.00 0.00 0.00 0.00 0.00 0.00 0.00 0.00 0.00 0.00 0.00 0.00 0.00 0.00 0.00 0.00 0.00 0.00 0.00 0.00 0.00 0.00
0.00 0.00 0.00 0.00 0.00 0.00 0.00 0.00 0.00 0.00 0.00 0.00 0.00 0.00 0.00 0.00 0.00 0.00 0.00 0.00 0.00 0.00 0.00 0.00 0.00 0.00 0.00 0.00 0.00 0.00 0.00 0.00 0.00 0.00 0.00 0.00 0.00 0.00 0.00 0.00 0.00 0.00 0.01 0.01 0.00 0.00 0.00 0.00 0.00
0.00 0.00 0.00 0.00 0.00 0.00 0.00 0.00 0.00 0.00 0.00 0.00 0.00 0.00 0.00 0.00 0.00 0.00 0.00 0.00 0.00 0.00 0.00 0.00 0.00 0.00 0.00 0.00 0.00 0.00 0.00 0.00 0.00 0.00 0.00 0.00 0.00 0.01 0.01 0.01 0.01 0.01 0.01 0.01 0.00 0.00 0.00 0.00 0.00
0.01 0.01 0.00 0.00 0.01 0.01 0.00 0.00 0.00 0.00 0.00 0.00 0.00 0.00 0.00 0.00 0.00 0.00 0.00 0.00 0.00 0.00 0.00 0.00 0.00 0.00 0.00 0.00 0.00 0.00 0.00 0.00 0.00 0.00 0.01 0.01 0.01 0.01 0.01 0.01 0.01 0.01 0.01 0.01 0.01 0.01 0.01 0.01 0.00
0.01 0.01 0.01 0.01 0.02 0.03 0.01 0.01 0.00 0.00 0.00 0.00 0.00 0.00 0.00 0.00 0.00 0.00 0.00 0.00 0.00 0.00 0.00 0.00 0.00 0.00 0.00 0.00 0.00 0.00 0.00 0.00 0.00 0.00 0.00 0.01 0.01 0.01 0.01 0.01 0.01 0.01 0.01 0.01 0.01 0.01 0.01 0.01 0.01
0.01 0.01 0.01 0.02 0.03 0.04 0.02 0.01 0.00 0.00 0.00 0.00 0.00 0.00 0.00 0.00 0.00 0.00 0.00 0.00 0.00 0.00 0.00 0.00 0.00 0.00 0.00 0.00 0.00 0.00 0.00 0.00 0.00 0.00 0.01 0.01 0.01 0.01 0.01 0.01 0.02 0.01 0.01 0.01 0.01 0.01 0.01 0.01 0.01
0.02 0.02 0.03 0.04 0.05 0.06 0.02 0.01 0.00 0.00 0.00 0.00 0.00 0.00 0.00 0.00 0.00 0.00 0.00 0.00 0.00 0.00 0.00 0.00 0.00 0.00 0.00 0.00 0.00 0.00 0.00 0.00 0.00 0.00 0.01 0.01 0.01 0.01 0.01 0.01 0.01 0.01 0.01 0.01 0.01 0.01 0.01 0.01 0.01
0.02 0.03 0.06 0.08 0.07 0.03 0.00 0.00 0.00 0.00 0.00 0.00 0.00 0.00 0.00 0.00 0.00 0.00 0.00 0.00 0.00 0.00 0.00 0.00 0.00 0.00 0.00 0.00 0.00 0.00 0.00 0.00 0.00 0.00 0.01 0.01 0.01 0.01 0.01 0.01 0.01 0.01 0.01 0.01 0.01 0.01 0.01 0.01 0.01
0.02 0.02 0.03 0.03 0.02 0.00 0.00 0.00 0.00 0.00 0.00 0.00 0.00 0.00 0.00 0.00 0.00 0.00 0.00 0.00 0.00 0.00 0.00 0.00 0.00 0.00 0.00 0.00 0.00 0.00 0.00 0.00 0.00 0.00 0.00 0.01 0.00 0.00 0.00 0.00 0.01 0.01 0.00 0.01 0.01 0.01 0.01 0.01 0.01
0.01 0.01 0.01 0.02 0.01 0.00 0.00 0.00 0.00 0.00 0.00 0.00 0.00 0.00 0.00 0.00 0.00 0.00 0.00 0.00 0.00 0.00 0.00 0.00 0.00 0.00 0.00 0.00 0.00 0.00 0.00 0.00 0.00 0.00 0.00 0.00 0.00 0.00 0.00 0.00 0.00 0.00 0.00 0.01 0.01 0.01 0.01 0.00 0.00
0.00 0.01 0.02 0.04 0.03 0.01 0.00 0.00 0.00 0.00 0.00 0.00 0.00 0.00 0.00 0.00 0.00 0.00 0.00 0.00 0.00 0.00 0.00 0.00 0.00 0.00 0.00 0.00 0.00 0.00 0.00 0.00 0.00 0.00 0.00 0.00 0.00 0.00 0.00 0.00 0.00 0.00 0.00 0.01 0.01 0.01 0.00 0.00 0.00
0.00 0.01 0.02 0.03 0.02 0.00 0.00 0.00 0.00 0.00 0.00 0.00 0.00 0.00 0.00 0.00 0.00 0.00 0.00 0.00 0.00 0.00 0.00 0.00 0.00 0.00 0.00 0.00 0.00 0.00 0.00 0.00 0.00 0.00 0.00 0.00 0.00 0.00 0.00 0.00 0.00 0.00 0.00 0.00 0.00 0.00 0.00 0.00 0.00
0.00 0.00 0.01 0.01 0.01 0.00 0.00 0.00 0.00 0.00 0.00 0.00 0.00 0.00 0.00 0.00 0.00 0.00 0.00 0.00 0.00 0.00 0.00 0.00 0.00 0.00 0.00 0.00 0.00 0.00 0.00 0.00 0.00 0.00 0.00 0.00 0.00 0.00 0.00 0.00 0.00 0.00 0.00 0.00 0.00 0.00 0.00 0.00 0.00
MSLP
1016.19 1016.44 1016.88 1017.45 1018.07 1018.67 1019.19 1019.59 1019.85 1020.01 1020.09 1020.15 1020.22 1020.32 1020.44 1020.56 1020.67 1020.74 1020.77 1020.77 1020.78 1020.83 1020.95 1021.15 1021.42 1021.73 1022.04 1022.30 1022.48 1022.57 1022.58 1022.53 1022.46 1022.42 1022.43 1022.49 1022.59 1022.70 1022.81 1022.89 1022.93 1022.95 1022.96 1022.99 1023.06 1023.17 1023.30 1023.44 1023.57
1016.61 1016.97 1017.49 1018.09 1018.70 1019.24 1019.64 1019.90 1020.01 1020.01 1019.97 1019.95 1019.98 1020.07 1020.22 1020.40 1020.56 1020.69 1020.76 1020.79 1020.82 1020.88 1021.00 1021.21 1021.50 1021.83 1022.18 1022.47 1022.69 1022.82 1022.85 1022.83 1022.79 1022.76 1022.79 1022.86 1022.97 1023.11 1023.23 1023.32 1023.38 1023.41 1023.44 1023.49 1023.57 1023.69 1023.83 1023.97 1024.08
1017.15 1017.59 1018.14 1018.73 1019.27 1019.69 1019.95 1020.05 1020.02 1019.90 1019.78 1019.72 1019.75 1019.88 1020.10 1020.35 1020.58 1020.76 1020.88 1020.93 1020.96 1021.01 1021.13 1021.33 1021.62 1021.96 1022.32 1022.65 1022.90 1023.06 1023.13 1023.14 1023.12 1023.12 1023.15 1023.24 1023.36 1023.49 1023.62 1023.72 1023.80 1023.85 1023.90 1023.97 1024.07 1024.20 1024.34 1024.48 1024.58
1017.80 1018.28 1018.82 1019.34 1019.77 1020.05 1020.15 1020.10 1019.94 1019.73 1019.56 1019.50 1019.57 1019.77 1020.06 1020.40 1020.71 1020.94 1021.09 1021.16 1021.20 1021.24 1021.34 1021.52 1021.80 1022.14 1022.51 1022.85 1023.12 1023.31 1023.41 1023.45 1023.46 1023.48 1023.53 1023.62 1023.74 1023.88 1024.01 1024.12 1024.21 1024.28 1024.35 1024.45 1024.57 1024.71 1024.86 1024.98 1025.05
1018.51 1019.00 1019.48 1019.90 1020.19 1020.31 1020.27 1020.08 1019.81 1019.55 1019.37 1019.34 1019.46 1019.74 1020.11 1020.52 1020.90 1021.18 1021.37 1021.46 1021.49 1021.53 1021.61 1021.78 1022.04 1022.37 1022.73 1023.07 1023.36 1023.56 1023.69 1023.76 1023.80 1023.84 1023.91 1024.01 1024.13 1024.27 1024.41 1024.52 1024.63 1024.72 1024.81 1024.93 1025.07 1025.22 1025.36 1025.47 1025.52
1019.22 1019.67 1020.07 1020.37 1020.52 1020.49 1020.31 1020.02 1019.69 1019.41 1019.24 1019.25 1019.43 1019.77 1020.21 1020.68 1021.11 1021.43 1021.65 1021.76 1021.80 1021.84 1021.93 1022.08 1022.33 1022.64 1022.98 1023.31 1023.59 1023.81 1023.96 1024.05 1024.12 1024.19 1024.28 1024.40 1024.54 1024.69 1024.83 1024.95 1025.06 1025.17 1025.28 1025.41 1025.56 1025.71 1025.84 1025.93 1025.95
1019.83 1020.23 1020.54 1020.71 1020.73 1020.59 1020.31 1019.96 1019.61 1019.33 1019.20 1019.25 1019.48 1019.87 1020.35 1020.85 1021.29 1021.64 1021.88 1022.01 1022.08 1022.14 1022.24 1022.40 1022.63 1022.92 1023.24 1023.55 1023.82 1024.03 1024.19 1024.31 1024.41 1024.52 1024.64 1024.79 1024.95 1025.11 1025.25 1025.38 1025.50 1025.60 1025.72 1025.86 1026.00 1026.15 1026.27 1026.33 1026.33
1020.30 1020.63 1020.84 1020.90 1020.82 1020.59 1020.27 1019.90 1019.56 1019.32 1019.23 1019.32 1019.58 1019.99 1020.47 1020.97 1021.42 1021.77 1022.03 1022.19 1022.29 1022.39 1022.51 1022.68 1022.91 1023.19 1023.48 1023.76 1024.01 1024.21 1024.38 1024.51 1024.65 1024.80 1024.97 1025.15 1025.34 1025.51 1025.66 1025.79 1025.90 1026.00 1026.11 1026.23 1026.37 1026.50 1026.60 1026.65 1026.63
1020.57 1020.82 1020.94 1020.92 1020.77 1020.51 1020.18 1019.83 1019.54 1019.35 1019.31 1019.43 1019.70 1020.09 1020.55 1021.01 1021.44 1021.79 1022.06 1022.25 1022.40 1022.54 1022.70 1022.90 1023.14 1023.40 1023.67 1023.92 1024.14 1024.33 1024.50 1024.66 1024.83 1025.02 1025.23 1025.45 1025.66 1025.86 1026.02 1026.14 1026.24 1026.33 1026.42 1026.52 1026.63 1026.74 1026.83 1026.87 1026.84
1020.63 1020.80 1020.84 1020.76 1020.59 1020.33 1020.04 1019.75 1019.52 1019.39 1019.39 1019.52 1019.78 1020.13 1020.54 1020.96 1021.35 1021.68 1021.96 1022.19 1022.39 1022.59 1022.80 1023.04 1023.29 1023.55 1023.80 1024.02 1024.22 1024.39 1024.56 1024.73 1024.92 1025.15 1025.40 1025.65 1025.90 1026.11 1026.28 1026.40 1026.49 1026.55 1026.62 1026.70 1026.79 1026.88 1026.95 1026.98 1026.96
1020.51 1020.60 1020.58 1020.47 1020.30 1020.08 1019.85 1019.64 1019.48 1019.41 1019.43 1019.56 1019.78 1020.08 1020.42 1020.78 1021.13 1021.45 1021.74 1022.01 1022.27 1022.53 1022.80 1023.07 1023.35 1023.62 1023.86 1024.06 1024.24 1024.40 1024.56 1024.74 1024.95 1025.20 1025.47 1025.75 1026.02 1026.25 1026.43 1026.55 1026.63 1026.69 1026.74 1026.80 1026.87 1026.94 1026.99 1027.02 1027.00
1020.23 1020.26 1020.20 1020.09 1019.94 1019.77 1019.61 1019.47 1019.38 1019.35 1019.38 1019.48 1019.66 1019.89 1020.17 1020.47 1020.77 1021.09 1021.40 1021.71 1022.03 1022.35 1022.69 1023.02 1023.33 1023.61 1023.85 1024.05 1024.21 1024.36 1024.51 1024.69 1024.91 1025.17 1025.45 1025.75 1026.04 1026.28 1026.47 1026.61 1026.70 1026.75 1026.80 1026.85 1026.91 1026.97 1027.02 1027.04 1027.03
1019.87 1019.84 1019.76 1019.66 1019.55 1019.44 1019.34 1019.27 1019.21 1019.19 1019.21 1019.27 1019.39 1019.55 1019.77 1020.02 1020.30 1020.62 1020.95 1021.31 1021.69 1022.09 1022.48 1022.86 1023.22 1023.53 1023.79 1024.00 1024.16 1024.31 1024.45 1024.63 1024.83 1025.08 1025.37 1025.67 1025.96 1026.22 1026.43 1026.59 1026.71 1026.79 1026.85 1026.91 1026.96 1027.01 1027.05 1027.07 1027.06
1019.46 1019.40 1019.33 1019.25 1019.18 1019.12 1019.07 1019.02 1018.97 1018.93 1018.91 1018.92 1018.97 1019.07 1019.23 1019.46 1019.73 1020.07 1020.44 1020.85 1021.28 1021.73 1022.19 1022.62 1023.03 1023.38 1023.67 1023.91 1024.10 1024.25 1024.40 1024.56 1024.75 1024.98 1025.25 1025.53 1025.83 1026.10 1026.34 1026.54 1026.70 1026.82 1026.91 1026.99 1027.06 1027.12 1027.15 1027.16 1027.15
1019.06 1019.00 1018.94 1018.90 1018.87 1018.85 1018.82 1018.76 1018.68 1018.59 1018.50 1018.44 1018.42 1018.48 1018.61 1018.82 1019.11 1019.47 1019.88 1020.33 1020.82 1021.32 1021.82 1022.30 1022.76 1023.16 1023.51 1023.79 1024.02 1024.20 1024.35 1024.50 1024.67 1024.87 1025.11 1025.37 1025.66 1025.94 1026.22 1026.46 1026.68 1026.86 1027.00 1027.12 1027.21 1027.27 1027.30 1027.30 1027.27
1018.70 1018.66 1018.65 1018.65 1018.66 1018.65 1018.60 1018.51 1018.36 1018.19 1018.01 1017.87 1017.79 1017.81 1017.92 1018.15 1018.46 1018.85 1019.30 1019.79 1020.31 1020.84 1021.38 1021.90 1022.40 1022.86 1023.27 1023.62 1023.90 1024.12 1024.30 1024.45 1024.60 1024.77 1024.97 1025.20 1025.47 1025.76 1026.06 1026.36 1026.63 1026.88 1027.08 1027.24 1027.36 1027.43 1027.46 1027.44 1027.40
1018.39 1018.41 1018.45 1018.51 1018.54 1018.53 1018.45 1018.28 1018.04 1017.76 1017.48 1017.26 1017.12 1017.11 1017.23 1017.47 1017.82 1018.25 1018.73 1019.24 1019.77 1020.31 1020.86 1021.40 1021.94 1022.45 1022.93 1023.35 1023.70 1023.99 1024.20 1024.37 1024.51 1024.64 1024.80 1025.00 1025.25 1025.54 1025.86 1026.19 1026.53 1026.83 1027.09 1027.30 1027.45 1027.53 1027.56 1027.54 1027.48
1018.16 1018.25 1018.36 1018.47 1018.52 1018.49 1018.35 1018.08 1017.73 1017.32 1016.94 1016.63 1016.44 1016.40 1016.53 1016.80 1017.19 1017.65 1018.15 1018.67 1019.19 1019.72 1020.25 1020.79 1021.35 1021.91 1022.45 1022.95 1023.38 1023.74 1024.01 1024.20 1024.34 1024.45 1024.58 1024.74 1024.96 1025.23 1025.56 1025.93 1026.30 1026.66 1026.97 1027.22 1027.39 1027.50 1027.53 1027.51 1027.46
1018.00 1018.17 1018.36 1018.51 1018.58 1018.51 1018.28 1017.90 1017.41 1016.88 1016.37 1015.98 1015.74 1015.70 1015.84 1016.15 1016.57 1017.05 1017.56 1018.07 1018.56 1019.04 1019.54 1020.06 1020.62 1021.20 1021.79 1022.37 1022.89 1023.32 1023.65 1023.89 1024.04 1024.15 1024.25 1024.38 1024.56 1024.82 1025.14 1025.52 1025.92 1026.31 1026.65 1026.94 1027.15 1027.27 1027.33 1027.33 1027.30
1017.90 1018.17 1018.43 1018.61 1018.67 1018.54 1018.21 1017.70 1017.07 1016.40 1015.78 1015.30 1015.02 1014.96 1015.12 1015.46 1015.91 1016.42 1016.92 1017.40 1017.85 1018.28 1018.71 1019.19 1019.73 1020.32 1020.95 1021.59 1022.18 1022.69 1023.09 1023.38 1023.56 1023.68 1023.77 1023.87 1024.03 1024.27 1024.57 1024.95 1025.35 1025.76 1026.13 1026.44 1026.68 1026.85 1026.94 1026.98 1026.99
1017.85 1018.20 1018.52 1018.72 1018.74 1018.54 1018.09 1017.44 1016.66 1015.85 1015.11 1014.55 1014.23 1014.16 1014.34 1014.70 1015.18 1015.70 1016.20 1016.65 1017.05 1017.41 1017.79 1018.21 1018.71 1019.29 1019.93 1020.60 1021.25 1021.83 1022.30 1022.64 1022.87 1023.01 1023.11 1023.21 1023.35 1023.56 1023.86 1024.22 1024.62 1025.03 1025.43 1025.77 1026.05 1026.26 1026.40 1026.51 1026.58
1017.83 1018.25 1018.60 1018.79 1018.75 1018.45 1017.88 1017.08 1016.15 1015.21 1014.36 1013.73 1013.36 1013.28 1013.47 1013.85 1014.36 1014.89 1015.39 1015.81 1016.17 1016.47 1016.78 1017.14 1017.59 1018.13 1018.77 1019.45 1020.13 1020.75 1021.28 1021.68 1021.96 1022.14 1022.27 1022.39 1022.53 1022.74 1023.03 1023.38 1023.78 1024.20 1024.61 1024.99 1025.31 1025.58 1025.80 1025.98 1026.14
1017.78 1018.25 1018.60 1018.76 1018.65 1018.24 1017.54 1016.60 1015.53 1014.46 1013.52 1012.81 1012.41 1012.32 1012.51 1012.92 1013.44 1013.99 1014.50 1014.91 1015.24 1015.50 1015.76 1016.05 1016.44 1016.94 1017.53 1018.20 1018.88 1019.52 1020.08 1020.54 1020.87 1021.11 1021.28 1021.44 1021.62 1021.85 1022.15 1022.51 1022.92 1023.35 1023.79 1024.21 1024.59 1024.93 1025.23 1025.50 1025.75
1017.66 1018.15 1018.50 1018.61 1018.41 1017.89 1017.06 1016.00 1014.81 1013.64 1012.62 1011.86 1011.43 1011.32 1011.52 1011.95 1012.49 1013.06 1013.58 1014.00 1014.32 1014.56 1014.78 1015.03 1015.35 1015.78 1016.32 1016.93 1017.58 1018.21 1018.79 1019.27 1019.66 1019.96 1020.20 1020.42 1020.66 1020.94 1021.27 1021.67 1022.11 1022.58 1023.05 1023.52 1023.97 1024.39 1024.78 1025.14 1025.48
1017.41 1017.92 1018.24 1018.29 1018.01 1017.39 1016.46 1015.30 1014.04 1012.80 1011.74 1010.95 1010.49 1010.38 1010.59 1011.02 1011.59 1012.18 1012.72 1013.16 1013.49 1013.73 1013.92 1014.13 1014.39 1014.75 1015.20 1015.74 1016.32 1016.91 1017.47 1017.96 1018.39 1018.76 1019.08 1019.39 1019.71 1020.07 1020.47 1020.92 1021.41 1021.93 1022.45 1022.98 1023.50 1024.00 1024.48 1024.94 1025.37
1017.01 1017.53 1017.81 1017.79 1017.44 1016.75 1015.76 1014.56 1013.27 1012.02 1010.95 1010.16 1009.70 1009.60 1009.80 1010.24 1010.82 1011.44 1012.00 1012.47 1012.82 1013.07 1013.25 1013.42 1013.63 1013.90 1014.26 1014.69 1015.18 1015.69 1016.20 1016.69 1017.15 1017.58 1017.98 1018.39 1018.81 1019.27 1019.76 1020.29 1020.85 1021.42 1022.01 1022.60 1023.19 1023.77 1024.33 1024.88 1025.39
1016.45 1016.95 1017.20 1017.14 1016.74 1016.02 1015.02 1013.83 1012.56 1011.35 1010.33 1009.57 1009.15 1009.06 1009.27 1009.71 1010.28 1010.90 1011.48 1011.97 1012.34 1012.60 1012.79 1012.93 1013.08 1013.27 1013.52 1013.84 1014.21 1014.63 1015.08 1015.54 1016.00 1016.48 1016.96 1017.47 1018.00 1018.57 1019.16 1019.78 1020.41 1021.06 1021.70 1022.35 1023.00 1023.65 1024.29 1024.91 1025.50
1015.75 1016.22 1016.43 1016.33 1015.92 1015.20 1014.25 1013.13 1011.95 1010.85 1009.92 1009.24 1008.86 1008.80 1009.01 1009.43 1009.99 1010.59 1011.17 1011.67 1012.05 1012.33 1012.51 1012.63 1012.73 1012.85 1012.99 1013.19 1013.45 1013.77 1014.13 1014.55 1015.01 1015.52 1016.07 1016.67 1017.31 1017.97 1018.67 1019.37 1020.07 1020.78 1021.48 1022.18 1022.88 1023.58 1024.28 1024.96 1025.62
1014.94 1015.36 1015.52 1015.40 1014.99 1014.32 1013.46 1012.46 1011.44 1010.49 1009.69 1009.13 1008.82 1008.79 1009.00 1009.39 1009.91 1010.48 1011.03 1011.51 1011.89 1012.17 1012.36 1012.47 1012.54 1012.59 1012.66 1012.76 1012.91 1013.12 1013.41 1013.78 1014.22 1014.75 1015.35 1016.02 1016.74 1017.49 1018.26 1019.03 1019.79 1020.54 1021.28 1022.01 1022.74 1023.48 1024.22 1024.96 1025.67
1014.07 1014.42 1014.52 1014.37 1013.98 1013.38 1012.63 1011.80 1010.96 1010.19 1009.57 1009.13 1008.91 1008.92 1009.11 1009.47 1009.93 1010.44 1010.94 1011.39 1011.76 1012.04 1012.23 1012.35 1012.41 1012.43 1012.45 1012.48 1012.56 1012.70 1012.92 1013.24 1013.67 1014.20 1014.83 1015.54 1016.31 1017.12 1017.94 1018.76 1019.55 1020.32 1021.07 1021.81 1022.56 1023.32 1024.09 1024.86 1025.62
Thickness
5722 5728 5733 5732 5721 5710 5704 5707 5713 5710 5713 5715 5715 5713 5711 5709 5704 5697 5699 5703 5700 5696 5692 5688 5687 5686 5686 5685 5685 5685 5685 5685 5685 5685 5685 5685 5685 5685 5685 5684 5684 5684 5683 5683 5682 5681 5680 5679 5678
5719 5724 5726 5720 5706 5696 5700 5708 5708 5712 5714 5712 5711 5711 5709 5708 5704 5699 5698 5699 5697 5694 5691 5688 5686 5685 5684 5684 5683 5683 5683 5683 5683 5682 5682 5682 5682 5682 5682 5681 5681 5681 5681 5680 5679 5678 5677 5676 5675
5716 5719 5713 5706 5698 5698 5700 5708 5711 5709 5710 5711 5709 5710 5709 5705 5701 5700 5701 5698 5696 5692 5690 5687 5685 5684 5683 5682 5682 5681 5681 5681 5681 5680 5680 5680 5679 5679 5679 5679 5678 5678 5678 5677 5676 5675 5674 5673 5672
5711 5709 5704 5697 5692 5700 5705 5709 5710 5706 5705 5708 5709 5706 5704 5702 5702 5702 5699 5697 5695 5691 5689 5685 5684 5682 5681 5681 5681 5680 5680 5679 5679 5678 5678 5677 5677 5676 5676 5676 5676 5676 5675 5674 5673 5672 5671 5670 5670
5704 5697 5687 5686 5691 5699 5704 5707 5708 5706 5706 5707 5707 5705 5701 5699 5701 5700 5697 5695 5693 5690 5688 5684 5682 5681 5680 5680 5679 5679 5678 5678 5677 5676 5675 5675 5675 5674 5674 5674 5674 5673 5672 5672 5671 5670 5669 5668 5667
5690 5689 5679 5680 5689 5695 5701 5704 5705 5705 5705 5703 5705 5702 5698 5696 5697 5696 5695 5693 5691 5689 5686 5683 5681 5680 5679 5678 5678 5677 5677 5676 5675 5674 5673 5673 5673 5672 5672 5672 5671 5671 5670 5669 5668 5667 5666 5666 5665
5680 5678 5676 5681 5685 5690 5698 5701 5703 5704 5703 5703 5707 5701 5695 5693 5694 5694 5692 5690 5689 5687 5685 5683 5680 5678 5677 5676 5676 5676 5675 5674 5673 5672 5672 5671 5671 5670 5670 5669 5669 5668 5668 5667 5666 5665 5664 5664 5663
5681 5676 5672 5678 5682 5688 5696 5697 5701 5703 5703 5704 5705 5701 5697 5695 5693 5690 5688 5687 5686 5685 5684 5682 5681 5679 5677 5675 5674 5674 5673 5672 5671 5670 5670 5669 5668 5668 5667 5667 5666 5666 5665 5664 5664 5663 5662 5661 5660
5676 5668 5669 5677 5680 5687 5691 5692 5694 5698 5699 5697 5699 5702 5702 5697 5690 5687 5684 5683 5682 5682 5682 5681 5680 5679 5677 5675 5672 5671 5671 5670 5669 5668 5668 5667 5667 5666 5666 5665 5664 5663 5663 5662 5661 5660 5660 5659 5658
5666 5664 5674 5682 5686 5688 5688 5690 5691 5692 5693 5693 5693 5693 5695 5691 5688 5685 5684 5683 5682 5681 5680 5680 5679 5678 5677 5674 5672 5671 5670 5669 5669 5668 5667 5667 5666 5665 5664 5662 5662 5661 5661 5660 5659 5658 5658 5658 5657
5662 5667 5676 5677 5681 5683 5683 5685 5688 5691 5691 5698 5699 5694 5690 5688 5686 5685 5685 5685 5683 5682 5680 5679 5678 5678 5676 5674 5673 5671 5670 5669 5668 5667 5666 5666 5665 5664 5663 5662 5660 5660 5659 5659 5657 5657 5657 5656 5655
5657 5665 5670 5674 5673 5675 5679 5682 5683 5688 5696 5700 5703 5699 5691 5689 5687 5687 5687 5686 5684 5682 5680 5678 5677 5676 5675 5674 5672 5671 5670 5669 5668 5666 5666 5665 5665 5664 5663 5662 5660 5659 5658 5657 5657 5655 5654 5653 5652
5650 5658 5663 5666 5667 5670 5672 5677 5681 5688 5695 5695 5696 5693 5691 5692 5691 5689 5688 5686 5684 5681 5680 5678 5676 5676 5674 5673 5672 5671 5670 5669 5668 5666 5665 5665 5664 5663 5662 5661 5659 5659 5657 5656 5655 5654 5652 5651 5650
5649 5652 5655 5659 5662 5664 5666 5673 5674 5689 5691 5690 5690 5691 5692 5693 5692 5689 5687 5685 5684 5682 5680 5678 5676 5675 5674 5673 5672 5671 5670 5669 5668 5666 5665 5664 5664 5663 5661 5660 5659 5658 5656 5655 5653 5652 5650 5649 5647
5640 5641 5645 5651 5655 5659 5660 5665 5676 5690 5687 5687 5688 5690 5690 5692 5692 5691 5690 5687 5685 5683 5681 5678 5676 5674 5673 5672 5671 5670 5670 5668 5667 5666 5665 5664 5663 5662 5661 5659 5658 5656 5654 5652 5651 5649 5647 5646 5644
5628 5629 5633 5647 5650 5653 5652 5664 5684 5687 5684 5687 5689 5689 5688 5690 5691 5692 5691 5688 5686 5683 5681 5678 5676 5674 5673 5672 5671 5670 5670 5669 5668 5666 5665 5663 5662 5661 5659 5658 5657 5654 5652 5651 5649 5647 5646 5644 5642
5616 5622 5630 5639 5646 5648 5649 5663 5680 5680 5680 5686 5689 5688 5686 5687 5689 5690 5690 5688 5686 5684 5681 5678 5676 5674 5673 5671 5670 5669 5669 5668 5667 5666 5665 5663 5661 5659 5658 5657 5655 5653 5651 5649 5646 5645 5643 5642 5639
5616 5623 5627 5635 5641 5641 5645 5659 5673 5672 5675 5684 5688 5687 5685 5687 5691 5690 5688 5686 5685 5683 5682 5680 5677 5675 5673 5671 5669 5668 5667 5667 5667 5666 5665 5663 5661 5659 5657 5655 5653 5651 5649 5646 5644 5642 5639 5636 5634
5621 5622 5625 5633 5635 5634 5640 5651 5666 5673 5670 5677 5682 5685 5686 5690 5691 5689 5687 5685 5683 5683 5682 5681 5679 5676 5674 5672 5670 5668 5667 5667 5666 5666 5665 5663 5661 5658 5656 5654 5652 5649 5647 5645 5642 5638 5635 5632 5629
5608 5613 5618 5620 5621 5625 5634 5644 5660 5669 5672 5678 5683 5686 5688 5688 5687 5685 5685 5684 5684 5684 5683 5682 5681 5678 5676 5674 5672 5671 5669 5668 5667 5665 5664 5662 5660 5658 5655 5653 5651 5647 5645 5642 5638 5635 5632 5628 5624
5597 5607 5610 5609 5610 5613 5619 5636 5654 5667 5671 5674 5679 5685 5688 5688 5688 5687 5684 5685 5686 5686 5686 5685 5683 5681 5678 5674 5671 5670 5668 5668 5665 5664 5663 5661 5659 5657 5655 5652 5649 5646 5643 5640 5636 5632 5629 5625 5619
5591 5599 5599 5597 5600 5607 5607 5624 5657 5666 5670 5674 5678 5681 5686 5689 5688 5689 5687 5687 5689 5690 5688 5686 5684 5682 5679 5675 5674 5672 5671 5670 5670 5667 5664 5661 5658 5656 5654 5651 5648 5645 5641 5638 5634 5629 5625 5622 5616
5586 5587 5586 5586 5587 5589 5597 5603 5647 5656 5663 5678 5683 5685 5688 5690 5690 5690 5691 5691 5692 5690 5688 5686 5684 5682 5680 5678 5676 5673 5673 5673 5671 5668 5664 5661 5658 5655 5652 5649 5646 5642 5639 5635 5631 5625 5621 5617 5613
5571 5570 5567 5568 5570 5574 5602 5598 5633 5657 5670 5679 5685 5687 5689 5690 5690 5690 5691 5689 5689 5688 5686 5685 5684 5683 5681 5679 5677 5676 5675 5672 5669 5666 5662 5660 5657 5654 5651 5647 5643 5640 5636 5632 5627 5622 5617 5612 5607
5566 5562 5553 5551 5557 5580 5598 5596 5634 5663 5671 5675 5682 5687 5689 5688 5687 5687 5686 5685 5685 5685 5684 5684 5683 5683 5682 5680 5678 5678 5676 5672 5669 5666 5661 5658 5655 5652 5649 5644 5640 5636 5632 5627 5622 5616 5610 5605 5599
5567 5570 5566 5561 5567 5583 5572 5595 5641 5656 5661 5665 5670 5676 5678 5679 5681 5682 5683 5683 5683 5682 5682 5682 5682 5683 5681 5680 5679 5677 5674 5671 5670 5666 5662 5658 5655 5652 5647 5642 5637 5632 5626 5621 5615 5609 5603 5597 5590
5556 5560 5571 5562 5552 5563 5581 5605 5628 5640 5647 5654 5659 5663 5669 5672 5674 5675 5676 5676 5677 5677 5677 5678 5679 5679 5679 5678 5677 5675 5673 5670 5668 5664 5659 5655 5652 5647 5642 5637 5631 5625 5619 5613 5607 5601 5593 5587 5580
5562 5560 5548 5550 5548 5562 5585 5601 5630 5640 5646 5654 5657 5662 5666 5666 5666 5667 5667 5667 5668 5669 5670 5670 5672 5674 5675 5674 5673 5671 5669 5667 5664 5660 5656 5652 5647 5641 5635 5629 5623 5617 5611 5604 5597 5590 5583 5576 5569
5548 5547 5554 5556 5560 5566 5576 5611 5638 5643 5648 5652 5656 5658 5658 5658 5658 5659 5658 5657 5657 5658 5660 5661 5664 5665 5666 5667 5666 5664 5663 5661 5657 5654 5651 5646 5640 5634 5628 5622 5615 5608 5601 5595 5588 5580 5572 5566 5558
5554 5557 5558 5554 5552 5566 5576 5606 5628 5628 5632 5636 5640 5644 5646 5646 5647 5647 5646 5645 5646 5648 5650 5652 5654 5656 5657 5657 5657 5656 5655 5652 5650 5647 5643 5638 5631 5626 5620 5614 5606 5599 5591 5585 5579 5570 5562 5556 5548